[[{"header":{"parameterUnit":"m.s-1","parameterCategory":1,"la1":30.2991,"la2":30.254,"lo1":-89.0895,"lo2":-89.0444,"dy":0.0017,"dx":0.0017,"nx":28,"ny":28,"refTime":"2023-07-27T03:00:00:Z","depth":0,"parameterNumber":2,"parameterNumberName":"U-component_of_WINDS"},"data":[0,0,0,0,0,0,0,0,0,0,0,0,0,0,0,0,0,0,0,0,0,0,0,0,0,0,0,0,0,0,0,0,0,0,0,0,0,0,0,0,0,0,0,0,0,0,0,0,0,0,0,0,0,0,0,0,0,0,0.6865,0.6865,0,0.6902,0.6902,0.6903,0.6849,0.6847,0.6845,0.6843,0.6888,0.6891,0.6894,0,0,0,0,0,0,0,0,0,0,0,0,0,0.6751,0.6753,0.6865,0.6865,0.6865,0.6902,0.6902,0.6903,0.6849,0.6847,0.6845,0.6843,0.6887,0.6891,0.6894,0,0,0,0,0,0,0,0,0,0,0,0,0,0.6796,0.6754,0.6865,0.6843,0.6842,0.6902,0.6902,0.6903,0.685,0.6847,0.6844,0.6842,0.6886,0.689,0.6895,0.698,0,0,0.6908,0.691,0,0,0,0,0,0,0,0,0.6793,0.68,0.6846,0.6845,0.6843,0.6868,0.6878,0.6929,0.6851,0.6847,0.6843,0.684,0.6884,0.6889,0.6902,0.6982,0.6984,0.6909,0.6912,0.6913,0.6915,0,0,0,0,0,0,0,0.679,0.6798,0.6879,0.6847,0.6845,0.6833,0.6836,0.6888,0.6882,0.6847,0.6843,0.6848,0.6883,0.6898,0.6903,0.6984,0.6909,0.6913,0.6915,0.6917,0.7131,0.7134,0,0,0,0,0,0,0.6789,0.6796,0.6878,0.6881,0.681,0.6837,0.6841,0.6863,0.6881,0.688,0.685,0.6845,0.6892,0.6898,0.6904,0.7002,0.6913,0.6918,0.692,0.7128,0.7132,0.7135,0,0,0,0,0,0,0.6787,0.6797,0.6877,0.6837,0.6846,0.6842,0.6867,0.6865,0.688,0.6883,0.6882,0.6867,0.689,0.6898,0.696,0.7003,0.692,0.6924,0.7125,0.713,0.7134,0.7201,0,0,0,0,0,0,0.6784,0.6796,0.6828,0.6838,0.6848,0.6931,0.687,0.6868,0.6887,0.6881,0.6898,0.6898,0.6888,0.6953,0.6964,0.7008,0.6927,0.7121,0.7127,0.7132,0.7195,0.7207,0.7218,0,0,0,0,0,0.678,0.6848,0.683,0.684,0.6888,0.6934,0.694,0.6925,0.6891,0.6923,0.6924,0.6898,0.6996,0.696,0.6972,0.7018,0.7118,0.7125,0.7132,0.719,0.7205,0.7218,0,0,0,0,0,0,0.6847,0.6849,0.6829,0.6903,0.6918,0.6925,0.6965,0.6942,0.697,0.6963,0.6945,0.6949,0.7015,0.7022,0.6982,0.7099,0.7052,0.7061,0.7092,0.7106,0.7117,0.7115,0.6931,0,0,0,0,0,0.687,0.6905,0.6906,0.697,0.6979,0.697,0.699,0.6976,0.6993,0.7,0.7006,0.7025,0.7059,0.7083,0.7115,0.7195,0.7197,0.7232,0.7243,0.7252,0.7262,0.7301,0.7316,0.7158,0.7158,0.7157,0,0,0.6919,0.6924,0.6948,0.6984,0.6994,0.7032,0.6977,0.7021,0.7048,0.7008,0.7065,0.707,0.7089,0.7159,0.7191,0.7168,0.7305,0.7261,0.7269,0.7273,0.731,0.7325,0.7338,0.7162,0.7161,0.7161,0,0,0.7027,0.7034,0.7088,0.7098,0.7112,0.7106,0.7118,0.7127,0.7128,0.7185,0.7154,0.7187,0.7248,0.7262,0.7277,0.7384,0.7361,0.7395,0.7456,0.7495,0.7508,0.7519,0.7556,0.757,0.7404,0.7404,0.7404,0,0.7086,0.7141,0.7119,0.7163,0.7179,0.7139,0.7192,0.7204,0.723,0.7242,0.7215,0.7287,0.7298,0.7369,0.7395,0.7409,0.7422,0.7395,0.7507,0.7518,0.7528,0.7564,0.7578,0.7408,0.7408,0.7407,0.7407,0,0.7212,0.725,0.7291,0.7313,0.7333,0.7383,0.7368,0.7391,0.7374,0.7371,0.7428,0.7438,0.747,0.7485,0.7472,0.7554,0.7539,0.751,0.7463,0.7548,0.7581,0.7594,0.7414,0.7413,0.7411,0.741,0,0,0.7368,0.7372,0.7388,0.7396,0.7407,0.7437,0.7482,0.751,0.753,0.7548,0.7586,0.7636,0.7607,0.7624,0.7611,0.7645,0.7727,0.7611,0.7611,0.7632,0.7817,0.784,0.7856,0.771,0.7713,0.7715,0.7815,0,0.7475,0.7552,0.7531,0.7608,0.7642,0.7602,0.7642,0.7653,0.765,0.7678,0.7675,0.771,0.767,0.7679,0.7711,0.7711,0.7764,0.7703,0.7746,0.7748,0.7743,0.7873,0.7898,0.7992,0.7828,0.783,0.7832,0,0.7611,0.763,0.7709,0.771,0.7724,0.776,0.7782,0.781,0.7821,0.7815,0.7832,0.781,0.7855,0.7805,0.7867,0.7825,0.7841,0.7843,0.7846,0.7851,0.7796,0.7881,0.8022,0.8036,0.7852,0.7851,0.7849,0,0.7715,0.7761,0.7813,0.7821,0.7825,0.785,0.7853,0.7861,0.7878,0.7897,0.7908,0.7934,0.7948,0.7969,0.7954,0.7919,0.8018,0.7967,0.8015,0.8015,0.8039,0.8038,0.8185,0.8049,0.8049,0.8048,0.8048,0,0.7837,0.7888,0.7859,0.7892,0.7946,0.7921,0.7976,0.7975,0.7981,0.8013,0.798,0.8011,0.7989,0.8018,0.8007,0.8059,0.8066,0.8063,0.806,0.8067,0.8067,0.8078,0.8071,0.8052,0.8051,0.8051,0.805,0,0.7965,0.7948,0.8002,0.7998,0.7999,0.8039,0.8036,0.8066,0.8058,0.8098,0.8106,0.8094,0.8126,0.8113,0.8148,0.814,0.8206,0.8194,0.8202,0.8199,0.8246,0.8242,0.8406,0.8426,0.8277,0.8279,0.828,0,0.8044,0.8081,0.8079,0.8096,0.81,0.813,0.8145,0.8121,0.8138,0.8151,0.8179,0.8207,0.8229,0.8281,0.8277,0.8302,0.8291,0.8346,0.8295,0.8299,0.8291,0.8289,0.8292,0.8357,0.8359,0.836,0.8362,0,0.8186,0.8175,0.8197,0.8215,0.8234,0.8248,0.826,0.8276,0.8252,0.8273,0.8303,0.8319,0.8352,0.838,0.8401,0.8405,0.838,0.8377,0.8389,0.8397,0.84,0.8398,0.823,0.8374,0.8373,0.8372,0.8371,0.8371,0.8292,0.8321,0.8323,0.8348,0.8353,0.8364,0.839,0.8383,0.8407,0.843,0.8414,0.8449,0.8456,0.8481,0.8488,0.8516,0.8494,0.8512,0.8517,0.8522,0.8527,0.8394,0.852,0.8519,0.8519,0.8519,0.8518,0,0.8432,0.8429,0.8452,0.8467,0.8486,0.8456,0.8466,0.8485,0.8515,0.8522,0.8542,0.8575,0.8601,0.8596,0.862,0.8642,0.8631,0.865,0.8648,0.8649,0.8546,0.8533,0.8658,0.8658,0.8658,0.8658,0.8658,0.8658,0.8507,0.8554,0.8542,0.8591,0.8589,0.862,0.8628,0.8637,0.8642,0.868,0.87,0.8695,0.8697,0.8719,0.8741,0.8739,0.875,0.8772,0.8766,0.8671,0.8657,0.8644,0.8631,0.8775,0.8775,0.8867,0.8867,0.8868]},{"header":{"parameterUnit":"m.s-1","parameterCategory":1,"la1":30.2991,"la2":30.254,"lo1":-89.0895,"lo2":-89.0444,"dy":0.0017,"dx":0.0017,"nx":28,"ny":28,"refTime":"2023-07-27T03:00:00:Z","depth":0,"parameterNumber":3,"parameterNumberName":"V-component_of_WINDS"},"data":[0,0,0,0,0,0,0,0,0,0,0,0,0,0,0,0,0,0,0,0,0,0,0,0,0,0,0,0,0,0,0,0,0,0,0,0,0,0,0,0,0,0,0,0,0,0,0,0,0,0,0,0,0,0,0,0,0,0,0.8635,0.8635,0,0.8617,0.8617,0.8617,0.8546,0.8544,0.8542,0.8541,0.8525,0.8526,0.8527,0,0,0,0,0,0,0,0,0,0,0,0,0,0.8608,0.8609,0.8635,0.8635,0.8634,0.8617,0.8617,0.8617,0.8546,0.8544,0.8542,0.854,0.8524,0.8525,0.8527,0,0,0,0,0,0,0,0,0,0,0,0,0,0.8608,0.8609,0.8635,0.8597,0.8593,0.8617,0.8617,0.8617,0.8546,0.8544,0.8541,0.8539,0.8524,0.8525,0.8527,0.8587,0,0,0.8532,0.8533,0,0,0,0,0,0,0,0,0.8608,0.8609,0.8603,0.8599,0.8596,0.8581,0.8601,0.8607,0.8547,0.8564,0.8541,0.8538,0.8545,0.8545,0.8547,0.8586,0.8585,0.8532,0.8533,0.8534,0.8534,0,0,0,0,0,0,0,0.8608,0.8609,0.8628,0.8603,0.8598,0.8581,0.8578,0.8602,0.8569,0.8562,0.8557,0.8556,0.8543,0.8546,0.8546,0.8585,0.8532,0.8534,0.8535,0.8535,0.8671,0.8673,0,0,0,0,0,0,0.8613,0.861,0.8628,0.8627,0.8596,0.8584,0.858,0.8588,0.8568,0.8563,0.8558,0.8553,0.8544,0.8545,0.8546,0.8613,0.8534,0.8535,0.8536,0.8668,0.8671,0.8674,0,0,0,0,0,0,0.8613,0.8616,0.8629,0.8617,0.8618,0.8587,0.8596,0.8589,0.8592,0.8565,0.8559,0.8567,0.8542,0.8543,0.8577,0.8612,0.8536,0.8538,0.8665,0.8669,0.8673,0.875,0,0,0,0,0,0,0.8613,0.8616,0.8638,0.8618,0.8618,0.866,0.8598,0.8591,0.8595,0.8588,0.8572,0.8567,0.854,0.8575,0.8578,0.8613,0.8539,0.8662,0.8667,0.8672,0.8744,0.8756,0.8766,0,0,0,0,0,0.8612,0.8661,0.864,0.8642,0.8645,0.8663,0.8663,0.8631,0.8598,0.862,0.8603,0.8568,0.8608,0.8579,0.8582,0.8618,0.866,0.8666,0.8671,0.8739,0.8754,0.8766,0,0,0,0,0,0,0.8687,0.8658,0.8634,0.8678,0.8673,0.865,0.8677,0.8647,0.8652,0.8645,0.8606,0.8603,0.8642,0.8633,0.8601,0.8674,0.8628,0.8635,0.8678,0.8692,0.8703,0.8704,0.854,0,0,0,0,0,0.8709,0.8725,0.8698,0.874,0.8739,0.8709,0.8715,0.8691,0.8684,0.8682,0.8667,0.8663,0.8674,0.8683,0.8692,0.8743,0.8738,0.8769,0.878,0.8789,0.8796,0.8821,0.8835,0.8694,0.8693,0.8693,0,0,0.8754,0.874,0.8752,0.8755,0.8748,0.8766,0.8708,0.8729,0.8741,0.8685,0.8715,0.8705,0.8697,0.874,0.8758,0.8734,0.8834,0.8797,0.8804,0.8806,0.8829,0.8842,0.8854,0.8697,0.8697,0.8696,0,0,0.8844,0.8836,0.8869,0.8863,0.8854,0.8833,0.8841,0.8823,0.8813,0.8843,0.8801,0.8816,0.8837,0.8833,0.8833,0.8922,0.889,0.8926,0.8984,0.901,0.9021,0.903,0.9061,0.9073,0.8933,0.8933,0.8933,0,0.8902,0.8926,0.889,0.8913,0.8916,0.8865,0.8898,0.8895,0.8889,0.8892,0.8865,0.8889,0.8881,0.8921,0.8943,0.8946,0.8953,0.8928,0.9022,0.9031,0.904,0.9069,0.9081,0.8937,0.8937,0.8936,0.8936,0,0.8996,0.9014,0.9042,0.9036,0.9042,0.907,0.9039,0.9049,0.9024,0.9007,0.9037,0.9025,0.9031,0.9038,0.9015,0.9076,0.9061,0.9029,0.8981,0.9058,0.9085,0.9096,0.8944,0.8942,0.8941,0.894,0,0,0.9134,0.9108,0.9118,0.9115,0.91,0.9113,0.914,0.9144,0.9153,0.9151,0.9172,0.919,0.916,0.9161,0.9137,0.9159,0.9229,0.9124,0.9123,0.9143,0.9295,0.9319,0.9332,0.9208,0.921,0.9212,0.9295,0,0.9219,0.9261,0.923,0.9278,0.9293,0.9245,0.9268,0.9262,0.9246,0.9257,0.924,0.9254,0.9213,0.9213,0.9234,0.9217,0.9259,0.921,0.9227,0.9228,0.923,0.9346,0.9371,0.9451,0.9306,0.9307,0.9309,0,0.9325,0.9326,0.9375,0.9357,0.9362,0.9383,0.9384,0.9395,0.9387,0.9374,0.9376,0.9345,0.9369,0.9323,0.9356,0.9324,0.9329,0.9322,0.9324,0.9324,0.9273,0.9349,0.9475,0.9487,0.9325,0.9323,0.9322,0,0.9419,0.9433,0.9464,0.9463,0.9442,0.9458,0.945,0.944,0.9444,0.9446,0.9448,0.9453,0.9456,0.946,0.9432,0.9401,0.9469,0.942,0.9459,0.946,0.9475,0.9474,0.9604,0.948,0.9479,0.9479,0.9479,0,0.9517,0.9549,0.9506,0.9525,0.9559,0.9523,0.9558,0.9545,0.9536,0.9552,0.9512,0.9528,0.949,0.9502,0.948,0.9511,0.9513,0.9503,0.9497,0.9506,0.9507,0.9508,0.9502,0.9482,0.9482,0.9481,0.948,0,0.9628,0.96,0.9631,0.9608,0.9604,0.963,0.9611,0.9628,0.961,0.963,0.9633,0.9605,0.9617,0.9589,0.9598,0.9583,0.9626,0.9612,0.9629,0.9624,0.9664,0.966,0.9798,0.9814,0.9681,0.9682,0.9683,0,0.9692,0.9715,0.9695,0.9702,0.9696,0.9709,0.9713,0.9679,0.9685,0.9677,0.9695,0.9704,0.9709,0.9731,0.9711,0.9717,0.9702,0.975,0.9703,0.9711,0.9702,0.9701,0.9702,0.976,0.9761,0.9763,0.9764,0,0.9808,0.9793,0.98,0.9803,0.9808,0.9809,0.9807,0.9815,0.9778,0.9787,0.9799,0.9803,0.9811,0.982,0.9822,0.9814,0.9783,0.9779,0.9788,0.9797,0.9806,0.9801,0.9655,0.9776,0.9774,0.9773,0.9773,0.9772,0.9896,0.9914,0.9903,0.9912,0.9907,0.9905,0.992,0.9903,0.9912,0.9915,0.9894,0.9911,0.9902,0.9901,0.9897,0.9909,0.9887,0.9901,0.9904,0.9908,0.9914,0.9805,0.9909,0.9909,0.9909,0.9908,0.9908,0,1.001,1.0,1.0009,1.0006,1.0014,0.9983,0.9979,0.9987,1.0001,0.9996,1.0001,1.0014,1.0023,1.0004,1.001,1.0023,1.0009,1.0026,1.0024,1.0023,0.9933,0.9924,1.0037,1.0037,1.0037,1.0037,1.0037,1.0037,1.007,1.0098,1.0082,1.0107,1.0097,1.0112,1.0112,1.0111,1.0106,1.0122,1.0129,1.0116,1.0105,1.011,1.0117,1.0111,1.0115,1.0136,1.0126,1.0042,1.0029,1.0017,1.0009,1.0138,1.0138,1.0214,1.0215,1.0216]}]]